User: anonymous   Login
Location: Unspecified
(0.0000°N, 0.0000°E)
Time: 03:34:44
(UTC+00:00)
Language:

Nadezhda 6 - Orbit

View from above orbital plane
View from above orbital plane
View from above satellite
View from above satellite

Ground track
Ground track

The orbit data is extracted from the following two-line orbital elements,

1 26384U 00033A   17112.83031367 +.00000131 +00000-0 +32268-4 0  9992
2 26384 098.0191 179.9420 0014830 200.3875 159.6732 14.66328884898699
Epoch (UTC): 22 April 2017 19:55:39
Eccentricity: 0.0014830
inclination: 98.0191°
perigee height: 662 km
apogee height: 683 km
right ascension of ascending node: 179.9420°
argument of perigee: 200.3875°
revolutions per day: 14.66328884
mean anomaly at epoch: 159.6732°
orbit number at epoch: 89869

The dashed part of the orbit path shows where the satellite is in the earth's shadow,  

DLR